TimeEST,TemperatureF,Dew PointF,Humidity,Sea Level PressureIn,VisibilityMPH,Wind Direction,Wind SpeedMPH,Gust SpeedMPH,PrecipitationIn,Events,Conditions,WindDirDegrees,DateUTC
12:15 AM,60.8,57.2,88,30.14,7.0,NNE,11.5,-,N/A,,Overcast,20,2012-11-17 05:15:00
12:35 AM,60.8,57.2,88,30.14,7.0,North,11.5,18.4,N/A,,Overcast,10,2012-11-17 05:35:00
12:55 AM,60.8,57.2,88,30.14,7.0,North,10.4,19.6,N/A,,Overcast,10,2012-11-17 05:55:00
1:15 AM,60.8,57.2,88,30.14,7.0,North,10.4,-,N/A,,Overcast,360,2012-11-17 06:15:00
1:35 AM,59.0,57.2,94,30.14,6.0,North,8.1,-,N/A,,Overcast,350,2012-11-17 06:35:00
1:55 AM,57.2,55.4,94,30.14,5.0,North,10.4,-,N/A,,Overcast,350,2012-11-17 06:55:00
2:15 AM,57.2,57.2,100,30.13,5.0,NNE,8.1,-,N/A,,Overcast,20,2012-11-17 07:15:00
2:35 AM,59.0,57.2,94,30.12,5.0,North,8.1,-,N/A,,Overcast,10,2012-11-17 07:35:00
2:55 AM,59.0,57.2,94,30.12,5.0,North,6.9,-,N/A,,Overcast,10,2012-11-17 07:55:00
3:15 AM,59.0,57.2,94,30.12,5.0,North,9.2,-,N/A,,Overcast,10,2012-11-17 08:15:00
3:35 AM,59.0,57.2,94,30.12,5.0,North,8.1,-,N/A,,Overcast,360,2012-11-17 08:35:00
3:55 AM,59.0,57.2,94,30.13,5.0,North,5.8,-,N/A,,Overcast,360,2012-11-17 08:55:00
4:15 AM,60.8,57.2,88,30.13,5.0,North,8.1,-,N/A,,Overcast,10,2012-11-17 09:15:00
4:35 AM,60.8,57.2,88,30.13,5.0,North,6.9,-,N/A,,Overcast,10,2012-11-17 09:35:00
4:55 AM,60.8,57.2,88,30.13,5.0,North,6.9,-,N/A,,Overcast,360,2012-11-17 09:55:00
5:15 AM,60.8,57.2,88,30.13,5.0,North,6.9,-,N/A,,Overcast,360,2012-11-17 10:15:00
5:35 AM,60.8,57.2,88,30.14,5.0,NNE,8.1,-,N/A,,Overcast,20,2012-11-17 10:35:00
5:55 AM,60.8,57.2,88,30.14,5.0,NNE,8.1,-,N/A,,Overcast,20,2012-11-17 10:55:00
6:15 AM,60.8,59.0,94,30.15,5.0,NNE,9.2,-,N/A,,Overcast,30,2012-11-17 11:15:00
2:35 PM,77.0,53.6,44,30.09,10.0,NNE,5.8,-,N/A,,Clear,30,2012-11-17 19:35:00
2:55 PM,78.8,53.6,42,30.09,8.0,NNE,8.1,-,N/A,,Clear,30,2012-11-17 19:55:00
3:15 PM,77.0,53.6,44,30.09,10.0,ENE,8.1,-,N/A,,Clear,60,2012-11-17 20:15:00
3:35 PM,77.0,53.6,44,30.09,9.0,NE,9.2,-,N/A,,Partly Cloudy,50,2012-11-17 20:35:00
3:55 PM,77.0,55.4,47,30.09,9.0,ENE,8.1,-,N/A,,Partly Cloudy,60,2012-11-17 20:55:00
4:15 PM,75.2,55.4,50,30.09,9.0,NE,9.2,-,N/A,,Partly Cloudy,40,2012-11-17 21:15:00
4:55 PM,75.2,55.4,50,30.10,8.0,NE,6.9,-,N/A,,Scattered Clouds,50,2012-11-17 21:55:00
5:15 PM,73.4,55.4,53,30.10,9.0,NE,8.1,-,N/A,,Partly Cloudy,50,2012-11-17 22:15:00
5:35 PM,71.6,57.2,60,30.10,10.0,NE,8.1,-,N/A,,Scattered Clouds,50,2012-11-17 22:35:00
5:55 PM,71.6,57.2,60,30.11,10.0,NE,9.2,-,N/A,,Scattered Clouds,40,2012-11-17 22:55:00
6:15 PM,71.6,59.0,64,30.12,10.0,North,12.7,18.4,N/A,,Mostly Cloudy,10,2012-11-17 23:15:00
6:35 PM,69.8,60.8,73,30.13,9.0,North,12.7,-,N/A,,Mostly Cloudy,10,2012-11-17 23:35:00
6:55 PM,68.0,60.8,78,30.13,9.0,NNE,9.2,-,N/A,,Scattered Clouds,20,2012-11-17 23:55:00
7:15 PM,66.2,60.8,83,30.14,9.0,North,9.2,-,N/A,,Clear,10,2012-11-18 00:15:00
7:35 PM,66.2,60.8,83,30.15,9.0,North,12.7,18.4,N/A,,Clear,10,2012-11-18 00:35:00
7:55 PM,64.4,60.8,88,30.16,9.0,North,12.7,17.3,N/A,,Scattered Clouds,360,2012-11-18 00:55:00
8:15 PM,64.4,60.8,88,30.16,10.0,North,12.7,-,N/A,,Mostly Cloudy,10,2012-11-18 01:15:00
8:35 PM,64.4,59.0,83,30.17,9.0,North,10.4,-,N/A,,Scattered Clouds,10,2012-11-18 01:35:00
8:55 PM,62.6,59.0,88,30.17,9.0,North,12.7,23.0,N/A,,Clear,10,2012-11-18 01:55:00
9:15 PM,62.6,59.0,88,30.17,8.0,NNE,11.5,-,N/A,,Partly Cloudy,20,2012-11-18 02:15:00
9:35 PM,62.6,59.0,88,30.18,8.0,North,8.1,-,N/A,,Scattered Clouds,10,2012-11-18 02:35:00
9:55 PM,62.6,60.8,94,30.18,8.0,NNE,11.5,-,N/A,,Mostly Cloudy,20,2012-11-18 02:55:00
10:15 PM,62.6,59.0,88,30.18,8.0,NNE,9.2,-,N/A,,Overcast,20,2012-11-18 03:15:00
10:35 PM,62.6,59.0,88,30.17,8.0,NNE,6.9,-,N/A,,Partly Cloudy,20,2012-11-18 03:35:00
10:55 PM,62.6,59.0,88,30.17,7.0,North,9.2,-,N/A,,Clear,10,2012-11-18 03:55:00
11:15 PM,62.6,59.0,88,30.17,7.0,North,9.2,-,N/A,,Scattered Clouds,10,2012-11-18 04:15:00
11:35 PM,62.6,60.8,94,30.16,7.0,North,9.2,-,N/A,,Partly Cloudy,10,2012-11-18 04:35:00
11:55 PM,62.6,60.8,94,30.16,7.0,North,9.2,-,N/A,,Partly Cloudy,10,2012-11-18 04:55:00